www.pogodaiklimat.ru

Погода и климат >> Архив погоды >> Россия >> Красноярский край >> Игарка


АРХИВ ПОГОДЫ в Игарке

Время (UTC), дата Ветер
(напр.,м/с)
 
Видим.   Явления Облачность Т
(С)
Тd
(С)
f
(%)
Тe
(С)
Тes
(С)
Комфортность P
(гПа)
Po
(гПа)
Тmin
(С)
Tmax
(С)
R
(мм)
R24
(мм)
S
(см)
18 11.01 штиль 0 4000 м дымка 6/0
[Ac trans Ci fib]
-44.3 -47.6 69 -44 -44 опасность
обморожения
1020.4 1016.1
21 11.01 штиль 0 4000 м дымка 6/0
[Ac trans Ci fib]
-42.4 -45.6 71 -42 -42 опасность
обморожения
1021.3 1017.1
00 12.01 штиль 0 4000 м дымка 4/0
[Ac trans Ci fib]
-45.3 -48.4 71 -45 -45 опасность
обморожения
1022.6 1018.3 -45.4 52
03 12.01 штиль 0 4000 м дымка 3/0
[Ci fib]
-46.5 -50.2 66 -47 -47 опасность
обморожения
1023.7 1019.4 -46.7
06 12.01 штиль 0 4000 м дымка 3/0
[Ci fib]
-46.8 -50.2 68 -47 -47 опасность
обморожения
1024.9 1020.6
09 12.01 штиль 0 10 км 3/0
[Ci fib]
-47.0 -50.8 65 -47 -47 опасность
обморожения
1026.9 1022.6
12 12.01 В 1 10 км 3/0
[Ci fib]
-48.1 -51.8 65 -54 -54 опасность
обморожения
1028.2 1023.8 -46.5
15 12.01 В 1 10 км 1/0
[Ci fib]
-46.8 -51.5 58 -53 -53 опасность
обморожения
1028.7 1024.4
18 12.01 ЮВ 1 10 км ледяные иглы 3/0
[Ci fib]
-45.1 -49.8 59 -51 -51 опасность
обморожения
1029.2 1024.9
21 12.01 ЮВ 3 10 км ледяные иглы 3/0
[Ci fib]
-38.5 -42.0 69 -50 -50 опасность
обморожения
1028.0 1023.8
00 13.01 ЮВ 5
{10}
10 км слаб. снег 9/6 1000 м
[Sc Cs]
-34.9 -37.7 75 -49 -49 опасность
обморожения
1025.4 1021.3 -48.6 0.0 52
03 13.01 ЮВ 6
{11}
4000 м слаб. снег {метель} 9/6 600 м
[Sc As op]
-31.0 -34.1 74 -45 -45 опасность
обморожения
1021.9 1017.9
06 13.01 Ю 7
{12}
10 км слаб. снег {метель} 9/8 600 м
[Sc As op]
-27.0 -29.5 79 -41 -41 опасность
обморожения
1020.6 1016.7
09 13.01 Ю 6
{13}
10 км слаб. снег {метель} 9/6 600 м
[Sc As op]
-24.8 -27.3 80 -37 -37 опасность
обморожения
1019.5 1015.6
12 13.01 ЮВ 6
{13}
10 км слаб. снег {метель} 9/6 300 м
[Sc As op]
-22.6 -25.1 80 -34 -34 опасность
обморожения
1017.8 1013.9 -22.4 2
15 13.01 Ю 6
{11}
10 км слаб. снег {метель} 9/5 300 м
[Sc As op]
-20.8 -22.7 85 -32 -32 опасность
обморожения
1016.1 1012.3
18 13.01 Ю 6
{13}
10 км слаб. снег {метель} 9/5 300 м
[Sc As op]
-21.5 -23.3 85 -33 -33 опасность
обморожения
1014.9 1011.1
21 13.01 ЮВ 4
{11}
10 км слаб. снег {метель} 9/4 1000 м
[Sc Ac trans Cs]
-21.3 -23.2 85 -31 -31 опасность
обморожения
1013.7 1009.9
00 14.01 ЮВ 4
{11}
10 км слаб. снег {метель} 9/4 1000 м
[Sc Cs]
-22.5 -24.3 85 -32 -32 опасность
обморожения
1013.2 1009.4 -23.0 0.3 49
03 14.01 ЮВ 5 10 км слаб. снег 9/4 1000 м
[Sc As op]
-20.9 -22.8 85 -31 -31 опасность
обморожения
1012.3 1008.5
06 14.01 ЮВ 4 10 км слаб. снег 9/3 1000 м
[Sc Ac trans Cs]
-19.7 -21.6 85 -29 -29 1012.1 1008.3
09 14.01 ЮВ 4 10 км слаб. снег 9/0
[Ac trans Cs]
-18.8 -20.7 85 -27 -27 1012.3 1008.5
12 14.01 ЮВ 4 10 км слаб. снег 9/4 1000 м
[Sc Ac As]
-18.6 -20.5 85 -27 -27 1012.6 1008.8 -18.4 0.8
15 14.01 ЮВ 4 10 км слаб. снег 9/3 1000 м
[Sc As op]
-18.3 -20.2 85 -27 -27 1011.5 1007.7
18 14.01 ЮВ 4 10 км слаб. снег 9/5 600 м
[Sc As op]
-16.0 -17.9 85 -24 -24 1010.7 1006.9
21 14.01 ЮВ 3 10 км слаб. снег 9/4 600 м
[Sc As op]
-15.1 -17.1 85 -22 -22 1009.7 1005.9
00 15.01 ЮВ 2 10 км слаб. снег 9/3 1000 м
[Sc As op]
-14.5 -16.5 85 -19 -19 1008.3 1004.6 -18.6 2 53
03 15.01 ЮВ 3 4000 м слаб. снег 9/8 600 м
[Sc As op]
-14.2 -15.5 90 -21 -21 1006.1 1002.4
06 15.01 ЮВ 4 4000 м слаб. снег 10/0 600 м
[As op]
-13.1 -15.1 85 -20 -20 1002.7 999.0
09 15.01 ЮВ 5 4000 м слаб. снег 10/10 300 м
[Frnb Ns]
-12.9 -14.9 85 -21 -21 999.7 996.0
12 15.01 ЮВ 5
{10}
4000 м слаб. снег 10/0
[As op]
-12.2 -13.5 90 -20 -20 997.2 993.6 -12.0 5
15 15.01 ЮВ 4 4000 м слаб. ливневой снег 9/9 600 м
[Cb cap]
-11.0 -12.3 90 -18 -18 995.8 992.2
18 15.01 Ю 4 10 км слаб. ливневой снег 9/9 600 м
[Cb cap]
-12.9 -14.2 90 -20 -20 995.7 992.0
21 15.01 З 4 10 км слаб. ливневой снег 9/9 300 м
[Cb cap]
-11.5 -12.1 95 -19 -19 997.2 993.6
00 16.01 З 4 10 км слаб. ливневой снег 9/9 300 м
[Cb cap]
-12.3 -13.6 90 -19 -19 1000.5 996.9 -12.9 4 56
03 16.01 З 2 10 км слаб. ливневой снег 9/8 300 м
[Cb cap Ac cuf]
-16.0 -17.9 85 -21 -21 1003.8 1000.1 -16.1
06 16.01 ЮЗ 3 10 км слаб. ливневой снег 9/8 300 м
[Cb cap Ac cuf]
-16.3 -18.2 85 -23 -23 1005.7 1002.0
09 16.01 ЮЗ 1 10 км слаб. снег 9/5 600 м
[Sc diur, vesp Ac As]
-17.5 -19.4 85 -20 -20 1006.8 1003.1
12 16.01 Ю 3 10 км слаб. снег 9/3 600 м
[Sc As op]
-17.4 -18.6 90 -24 -24 1007.5 1003.8 -12.2 1
15 16.01 Ю 3 10 км слаб. снег 9/3 1000 м
[Sc As op]
-17.6 -18.8 90 -25 -25 1007.6 1003.8
18 16.01 штиль 0 10 км слаб. снег 10/0
[As op]
-18.6 -19.8 90 -19 -19 1008.2 1004.4
21 16.01 ЮВ 1 10 км слаб. снег 10/0
[As op]
-18.3 -19.5 90 -21 -21 1009.2 1005.4
00 17.01 штиль 0 10 км слаб. снег 9/0
[Ac trans Cs]
-24.0 -25.9 84 -24 -24 1011.1 1007.2 -24.1 1 58
03 17.01 штиль 0 10 км {снег} 6/0
[Ac trans Ci fib]
-28.8 -31.2 80 -29 -29 1013.5 1009.5 -29.2
06 17.01 Ю 1 10 км слаб. снег 9/4 1000 м
[Sc Ac trans Cs]
-26.2 -28.1 84 -30 -30 1016.0 1012.1
09 17.01 Ю 2 10 км слаб. снег 9/0
[Ac trans Cs]
-26.3 -28.1 85 -33 -33 опасность
обморожения
1018.1 1014.2
12 17.01 ЮВ 1 10 км слаб. снег 9/0
[Ac trans Cs]
-25.8 -27.6 85 -29 -29 1019.3 1015.4 -23.8 0.3
15 17.01 ЮВ 2 10 км слаб. снег 9/6 600 м
[Sc As op]
-23.2 -25.0 85 -30 -30 1019.0 1015.1
18 17.01 ЮВ 4 10 км слаб. снег 9/6 300 м
[Sc As op]
-18.4 -19.6 90 -27 -27 1015.6 1011.8
21 17.01 ЮВ 6
{11}
2000 м снег {метель} 10/10 300 м
[Frnb Ns]
-15.0 -16.3 90 -25 -25 1011.4 1007.6
00 18.01 Ю 8
{14}
10 км слаб. снег {метель} 10/10 300 м
[Frnb Ns]
-12.8 -14.1 90 -23 -23 1008.4 1004.7 -26.0 3 58
03 18.01 Ю 7
{14}
10 км слаб. ливневой снег 10/10 300 м
[Cb cap]
-12.8 -14.1 90 -22 -22 1006.0 1002.3
06 18.01 Ю 7
{14}
10 км слаб. ливневой снег 10/10 300 м
[Cb cap]
-12.8 -14.1 90 -22 -22 1006.0 1002.3
09 18.01 Ю 8
{14}
4000 м слаб. ливневой снег {метель} 9/8 600 м
[Cb cap Ac cuf]
-11.2 -12.5 90 -21 -21 1001.6 998.0
12 18.01 Ю 7
{14}
4000 м слаб. ливневой снег {метель} 9/6 600 м
[Cb cap Ac cuf]
-11.0 -12.3 90 -20 -20 1001.4 997.8 -10.8 2
15 18.01 Ю 7
{14}
10 км слаб. ливневой снег {метель} 9/6 300 м
[Cb cap Ac cuf]
-11.2 -12.5 90 -21 -21 1001.1 997.5

 

Местоположение метеостанции Игарка (Красноярский край, Россия): широта 67.47 долгота 86.57 высота над уровнем моря 28 м.

В архиве по умолчанию представлена погода в Игарке за последнюю неделю. Архивные данные за месяц целиком и за предыдущие месяцы, начиная с января 2011 года, Вы можете получить, выбрав интересующий диапазон дат из раскрывающегося списка и нажав кнопку "Ввод!".


*Определитесь, кто Вы:
робот инопланетянин человек

Внимание! Время в таблицах - всемирное. Для получения местного времени необходимо прибавить поправку, которая равна 7 ч.

Смотрите также архив погоды в соседних городах и на ближайших метеорологических станциях:

Погода в Горбиачине (Красноярский край, Россия) (54 км)
Погода в Снежногорске (Красноярский край, Россия) (86 км)
Погода в Светлогорске (Красноярский край, Россия) (98 км)
Погода в Курейке (Красноярский край, Россия) (115 км)
Погода в Потапово (Красноярский край, Россия) (134 км)
Погода в Советской Речке (Красноярский край, Россия) (140 км)
Погода в Туруханске (Красноярский край, Россия) (197 км)
Погода в Норильске (Красноярский край, Россия) (219 км)
Погода в Большом Пороге (Эвенкия, Россия) (256 км)
Погода в Красноселькупске (Ямало-Ненецкий АО, Россия) (268 км)

Пояснения к столбцам:

Ветер - указаны скорость ветра в м/с - средняя за 10 мин, порывы в срок и между сроками (в фигурных скобках) и направление, откуда дует ветер: С - северный, СВ - северо-восточный, В - восточный, ЮВ - юго-восточный, Ю - южный, ЮЗ - юго-западный, З - западный, СЗ - северо-западный.
Видимость - горизонтальная дальность видимости в метрах или километрах. При видимости от 1 до 10 км при отсутствии осадков обычно наблюдается дымка, при ухудшении видимости до 1 км и менее - туман. В сухую погоду видимость может ухудшаться дымом, пылью или мглою.
Явления - указаны атмосферные явления, наблюдавшиеся в срок или в последний час перед сроком; фигурными скобками обозначены явления, наблюдавшиеся между сроками (за 1-3 часа до срока); квадратными скобками обозначены град или гололедные отложения с указанием их диаметра в мм.
Облачность - указаны через наклонную черту общая и нижняя облачность в баллах и высота нижней границы облаков в метрах; квадратными скобками обозначены формы облаков: Ci - перистые, Cs - перисто-слоистые, Cc - перисто-кучевые, Ac - высококучевые, As - высокослоистые, Sc - слоисто-кучевые, Ns - слоисто-дождевые, Cu - кучевые, Cb - кучево-дождевые. Подробнее классификацию облаков см. в Атласе облаков (PDF).
T - Температура воздуха - температура, измеренная на высоте 2 м над землей.
Td - Температура точки росы - температура, при понижении до которой содержащийся в воздухе водяной пар достигнет насыщения.
f - Относительная влажность воздуха - влажноcть воздуха, измеренная на высоте 2 м над землей.
Te - Эффективная температура - температура, которую ощущает одетый по сезону человек в тени. Характеристика душности погоды. При расчете учитывается влияние влажности воздуха и скорости ветра на теплоощущения человека.
Tes - Эффективная температура на солнце - температура, которую ощущает человек, с поправкой на солнечный нагрев. Характеристика знойности погоды. Зависит от высоты солнца над горизонтом, облачности и скорости ветра. Ночью, в пасмурную погоду, а также при ветре 12 м/с и более поправка равна нулю.
P - Атмосферное давление - приведенное к уровню моря атмосферное давление.
Po - Атмосферное давление - измеренное на уровне метеостанции атмосферное давление.
Tmin - Минимальная температура - минимум температуры воздуха на высоте 2 м над землей.
Tmax - Максимальная температура - максимум температуры воздуха на высоте 2 м над землей.
R - Количество осадков - Количество выпавших осадков за период времени, мм. При наведении курсора мыши на число - период времени, за который выпало указанное количество осадков.
R24 - Количество осадков - Количество выпавших осадков за 24 часа, мм.
S - Снежный покров - Высота снежного покрова, см. При наведении курсора мыши на число - состояние снежного покрова и степень покрытия местности в баллах.